Terug naar catalogus

SL-19 DEB

ActiefUNKNOWN
NORAD 23485·DEBRIS·🇷🇺 Russia

Gelanceerd Dec 26, 1994 vanaf Baikonur Cosmodrome

Loading…

Volgende Passages (komende 24 uur)

TLE

VersSource: Space-Track

Epoch: Sep 14, 2026, 07:54 UTC

1 23485U 94085H   26257.32949130 -.00005329  00000-0 -14511+0 0  9993
2 23485  64.6384  29.1404 0173431 174.2474 186.0495 11.29952869307367

Volg SL-19 DEB in realtime met AllMySat

Download on the App Store